TimeCST,TemperatureF,Dew PointF,Humidity,Sea Level PressureIn,VisibilityMPH,Wind Direction,Wind SpeedMPH,Gust SpeedMPH,PrecipitationIn,Events,Conditions,WindDirDegrees,DateUTC
12:13 AM,-0.4,-5.8,78,30.18,10.0,NW,6.9,-,N/A,,Clear,310,2014-02-09 06:13:00
12:32 AM,-2.2,-5.8,85,30.18,10.0,NW,6.9,-,N/A,,Clear,310,2014-02-09 06:32:00
12:53 AM,-2.2,-5.8,85,30.19,10.0,WNW,6.9,-,N/A,,Clear,290,2014-02-09 06:53:00
1:12 AM,-2.2,-7.6,78,30.19,10.0,WNW,6.9,-,N/A,,Clear,290,2014-02-09 07:12:00
1:33 AM,-2.2,-7.6,78,30.20,10.0,WNW,8.1,-,N/A,,Clear,300,2014-02-09 07:33:00
1:52 AM,-2.2,-7.6,78,30.20,10.0,WNW,6.9,-,N/A,,Clear,300,2014-02-09 07:52:00
2:13 AM,-2.2,-7.6,78,30.21,10.0,NW,8.1,-,N/A,,Clear,310,2014-02-09 08:13:00
2:33 AM,-4.0,-7.6,85,30.21,10.0,WNW,6.9,-,N/A,,Clear,300,2014-02-09 08:33:00
2:52 AM,-2.2,-7.6,78,30.22,10.0,NW,8.1,-,N/A,,Clear,310,2014-02-09 08:52:00
3:13 AM,-4.0,-7.6,85,30.22,10.0,WNW,6.9,-,N/A,,Clear,290,2014-02-09 09:13:00
3:33 AM,-4.0,-7.6,85,30.22,10.0,NW,8.1,-,N/A,,Clear,310,2014-02-09 09:33:00
3:52 AM,-4.0,-7.6,85,30.22,10.0,NW,8.1,-,N/A,,Clear,310,2014-02-09 09:52:00
4:13 AM,-5.8,-9.4,84,30.24,10.0,WNW,8.1,-,N/A,,Clear,290,2014-02-09 10:13:00
4:33 AM,-4.0,-9.4,78,30.23,10.0,NW,8.1,-,N/A,,Clear,310,2014-02-09 10:33:00
4:52 AM,-5.8,-9.4,84,30.24,10.0,NW,10.4,-,N/A,,Clear,310,2014-02-09 10:52:00
5:13 AM,-5.8,-9.4,84,30.24,10.0,NW,9.2,-,N/A,,Clear,320,2014-02-09 11:13:00
5:33 AM,-5.8,-11.2,77,30.23,10.0,NNW,8.1,-,N/A,,Clear,330,2014-02-09 11:33:00
5:52 AM,-5.8,-11.2,77,30.23,10.0,NNW,6.9,-,N/A,,Clear,330,2014-02-09 11:52:00
6:13 AM,-7.6,-11.2,84,30.24,10.0,NNW,5.8,-,N/A,,Clear,330,2014-02-09 12:13:00
6:33 AM,-5.8,-11.2,77,30.26,10.0,NW,5.8,-,N/A,,Clear,310,2014-02-09 12:33:00
6:52 AM,-7.6,-11.2,84,30.27,10.0,NW,6.9,-,N/A,,Clear,310,2014-02-09 12:52:00
7:13 AM,-7.6,-13.0,77,30.28,10.0,NW,8.1,-,N/A,,Clear,320,2014-02-09 13:13:00
7:33 AM,-7.6,-11.2,84,30.28,10.0,NW,6.9,-,N/A,,Clear,310,2014-02-09 13:33:00
7:52 AM,-7.6,-11.2,84,30.28,10.0,NW,6.9,-,N/A,,Clear,310,2014-02-09 13:52:00
8:13 AM,-7.6,-13.0,77,30.28,10.0,NW,6.9,-,N/A,,Clear,320,2014-02-09 14:13:00
8:33 AM,-5.8,-13.0,71,30.29,10.0,WNW,6.9,-,N/A,,Clear,300,2014-02-09 14:33:00
8:52 AM,-5.8,-11.2,77,30.29,10.0,NW,9.2,-,N/A,,Clear,320,2014-02-09 14:52:00
9:13 AM,-5.8,-11.2,77,30.30,10.0,NW,9.2,-,N/A,,Clear,320,2014-02-09 15:13:00
9:33 AM,-4.0,-11.2,71,30.30,10.0,NW,8.1,-,N/A,,Clear,320,2014-02-09 15:33:00
9:52 AM,-2.2,-11.2,66,30.31,10.0,NW,9.2,-,N/A,,Clear,310,2014-02-09 15:52:00
10:13 AM,-2.2,-9.4,71,30.32,10.0,NW,6.9,-,N/A,,Clear,310,2014-02-09 16:13:00
10:33 AM,-0.4,-9.4,66,30.31,10.0,NW,9.2,-,N/A,,Clear,310,2014-02-09 16:33:00
10:52 AM,-0.4,-9.4,66,30.32,10.0,NW,10.4,-,N/A,,Clear,310,2014-02-09 16:52:00
11:13 AM,1.4,-9.4,61,30.32,10.0,NW,9.2,16.1,N/A,,Clear,310,2014-02-09 17:13:00
11:33 AM,1.4,-7.6,66,30.32,10.0,NW,11.5,16.1,N/A,,Clear,320,2014-02-09 17:33:00
11:52 AM,3.2,-7.6,61,30.31,10.0,NW,10.4,16.1,N/A,,Clear,320,2014-02-09 17:52:00
12:13 PM,3.2,-5.8,66,30.31,10.0,NW,10.4,-,N/A,,Scattered Clouds,320,2014-02-09 18:13:00
12:32 PM,3.2,-5.8,66,30.30,10.0,NW,8.1,-,N/A,,Mostly Cloudy,320,2014-02-09 18:32:00
12:53 PM,5.0,-5.8,61,30.30,10.0,WNW,11.5,18.4,N/A,,Overcast,300,2014-02-09 18:53:00
1:12 PM,5.0,-2.2,72,30.30,7.0,WNW,10.4,-,N/A,,Mostly Cloudy,290,2014-02-09 19:12:00
1:32 PM,5.0,-4.0,66,30.29,10.0,WNW,13.8,-,N/A,,Scattered Clouds,290,2014-02-09 19:32:00
1:53 PM,5.0,-4.0,66,30.29,7.0,WNW,12.7,-,N/A,,Scattered Clouds,300,2014-02-09 19:53:00
2:12 PM,5.0,-4.0,66,30.28,10.0,WNW,11.5,19.6,N/A,,Scattered Clouds,300,2014-02-09 20:12:00
2:32 PM,5.0,-4.0,66,30.28,10.0,WNW,13.8,17.3,N/A,,Scattered Clouds,290,2014-02-09 20:32:00
2:53 PM,5.0,-4.0,66,30.29,10.0,WNW,11.5,-,N/A,,Scattered Clouds,290,2014-02-09 20:53:00
3:12 PM,3.2,-5.8,66,30.30,10.0,WNW,11.5,17.3,N/A,,Scattered Clouds,290,2014-02-09 21:12:00
3:33 PM,3.2,-7.6,61,30.30,10.0,NW,13.8,18.4,N/A,,Scattered Clouds,310,2014-02-09 21:33:00
3:53 PM,3.2,-7.6,61,30.30,10.0,NW,12.7,-,N/A,,Clear,310,2014-02-09 21:53:00
4:12 PM,3.2,-7.6,61,30.30,10.0,WNW,15.0,-,N/A,,Clear,290,2014-02-09 22:12:00
4:33 PM,1.4,-7.6,66,30.30,10.0,WNW,13.8,-,N/A,,Clear,290,2014-02-09 22:33:00
4:53 PM,1.4,-7.6,66,30.31,10.0,WNW,9.2,-,N/A,,Clear,300,2014-02-09 22:53:00
5:13 PM,-0.4,-9.4,66,30.32,10.0,NW,11.5,-,N/A,,Clear,310,2014-02-09 23:13:00
5:32 PM,-0.4,-9.4,66,30.32,10.0,NW,9.2,-,N/A,,Clear,310,2014-02-09 23:32:00
5:53 PM,-0.4,-9.4,66,30.33,10.0,NW,9.2,16.1,N/A,,Clear,310,2014-02-09 23:53:00
6:13 PM,-2.2,-9.4,71,30.34,10.0,WNW,9.2,16.1,N/A,,Clear,290,2014-02-10 00:13:00
6:32 PM,-2.2,-9.4,71,30.35,10.0,WNW,9.2,-,N/A,,Clear,290,2014-02-10 00:32:00
6:53 PM,-2.2,-9.4,71,30.35,10.0,WNW,10.4,17.3,N/A,,Clear,290,2014-02-10 00:53:00
7:13 PM,-4.0,-9.4,78,30.35,10.0,WNW,10.4,-,N/A,,Clear,300,2014-02-10 01:13:00
7:32 PM,-5.8,-11.2,77,30.35,10.0,WNW,8.1,-,N/A,,Clear,300,2014-02-10 01:32:00
7:53 PM,-5.8,-11.2,77,30.35,10.0,NW,8.1,16.1,N/A,,Clear,310,2014-02-10 01:53:00
8:13 PM,-5.8,-11.2,77,30.35,10.0,NW,10.4,-,N/A,,Clear,310,2014-02-10 02:13:00
8:32 PM,-5.8,-11.2,77,30.35,10.0,NW,10.4,-,N/A,,Clear,310,2014-02-10 02:32:00
8:53 PM,-5.8,-11.2,77,30.35,10.0,NW,9.2,-,N/A,,Clear,310,2014-02-10 02:53:00
9:13 PM,-5.8,-11.2,77,30.35,10.0,NW,8.1,-,N/A,,Clear,310,2014-02-10 03:13:00
9:32 PM,-5.8,-11.2,77,30.36,10.0,NW,9.2,-,N/A,,Clear,310,2014-02-10 03:32:00
9:51 PM,-5.8,-11.2,77,30.36,10.0,NW,10.4,-,N/A,,Clear,310,2014-02-10 03:51:00
10:00 PM,-5.8,-11.2,77,30.37,10.0,NW,8.1,-,N/A,,Clear,310,2014-02-10 04:00:00
10:32 PM,-7.6,-11.2,84,30.37,10.0,NW,8.1,-,N/A,,Clear,320,2014-02-10 04:32:00
10:53 PM,-7.6,-13.0,77,30.38,10.0,NW,9.2,-,N/A,,Clear,310,2014-02-10 04:53:00
11:13 PM,-7.6,-13.0,77,30.38,10.0,WNW,9.2,-,N/A,,Clear,290,2014-02-10 05:13:00
11:32 PM,-7.6,-14.8,71,30.39,10.0,WNW,8.1,-,N/A,,Clear,290,2014-02-10 05:32:00
11:53 PM,-9.4,-14.8,77,30.40,10.0,WNW,6.9,-,N/A,,Clear,290,2014-02-10 05:53:00